Location: *
(51.4660°N, 0.3360°W)
Time: 11:08:17
(UTC+00:00)

SL-08 RB Rocket - Pass Details

Date: 19 September 2019
Orbit: 647 x 685 km, 97.9° (Epoch: 13 October)

Event Time Altitude Azimuth Distance (km) Brightness Sun altitude
Exits shadow 19:29:15 18° 132° (SE) 1,674 5.2 -13.3°
Maximum altitude 19:32:25 43° 68° (ENE) 959 4.2 -13.8°
Drops below altitude 10° 19:36:51 10° 357° (N) 2,142 6.6 -14.4°
Sets 19:39:11 0° 351° (N) 3,060 7.6 -14.8°
